Year,Month,Day,Hour,Minute,Value (Times are PST for temperature in C)
2016,04,18,06,48,9.90
2016,04,18,06,49,10.00
2016,04,18,06,50,10.00
2016,04,18,06,51,10.00
2016,04,18,06,52,10.10
2016,04,18,06,53,10.10
2016,04,18,06,54,10.10
2016,04,18,06,55,10.10
2016,04,18,06,56,10.10
2016,04,18,06,57,10.10
2016,04,18,06,58,10.10
2016,04,18,06,59,10.10
2016,04,18,07,00,10.10
2016,04,18,07,01,10.10
2016,04,18,07,02,10.20
2016,04,18,07,03,10.20
2016,04,18,07,04,10.20
2016,04,18,07,05,10.20
2016,04,18,07,06,10.20
2016,04,18,07,07,10.20
2016,04,18,07,08,10.20
2016,04,18,07,09,10.20
2016,04,18,07,10,10.20
2016,04,18,07,11,10.20
2016,04,18,07,12,10.20
2016,04,18,07,13,10.20
2016,04,18,07,14,10.20
2016,04,18,07,15,10.20
2016,04,18,07,16,10.20
2016,04,18,07,17,10.20
2016,04,18,07,18,10.20
2016,04,18,07,19,10.20
2016,04,18,07,20,10.20
2016,04,18,07,21,10.20
2016,04,18,07,22,10.20
2016,04,18,07,23,10.20
2016,04,18,07,24,10.20
2016,04,18,07,25,10.20
2016,04,18,07,26,10.30
2016,04,18,07,27,10.30
2016,04,18,07,28,10.30
2016,04,18,07,29,10.30
2016,04,18,07,30,10.40
2016,04,18,07,31,10.40
2016,04,18,07,32,10.50
2016,04,18,07,33,10.50
2016,04,18,07,34,10.60
2016,04,18,07,35,10.60
2016,04,18,07,36,10.70
2016,04,18,07,37,10.70
2016,04,18,07,38,10.80
2016,04,18,07,39,10.80
2016,04,18,07,40,10.80
2016,04,18,07,41,10.80
2016,04,18,07,42,10.80
2016,04,18,07,43,10.80
2016,04,18,07,44,10.80
2016,04,18,07,45,10.90
2016,04,18,07,46,10.90
2016,04,18,07,47,10.90
2016,04,18,07,48,10.90
2016,04,18,07,49,10.90
2016,04,18,07,50,10.90
2016,04,18,07,51,10.90
2016,04,18,07,52,11.00
2016,04,18,07,53,11.00
2016,04,18,07,54,11.00
2016,04,18,07,55,11.00
2016,04,18,07,56,11.10
2016,04,18,07,57,11.10
2016,04,18,07,58,11.10
2016,04,18,07,59,11.10
2016,04,18,08,00,11.10
2016,04,18,08,01,11.20
2016,04,18,08,02,11.20
2016,04,18,08,03,11.20
2016,04,18,08,04,11.20
2016,04,18,08,05,11.30
2016,04,18,08,06,11.30
2016,04,18,08,07,11.40
2016,04,18,08,08,11.40
2016,04,18,08,09,11.40
2016,04,18,08,10,11.50
2016,04,18,08,11,11.50
2016,04,18,08,12,11.50
2016,04,18,08,13,11.60
2016,04,18,08,14,11.60
2016,04,18,08,15,11.60
2016,04,18,08,16,11.70
2016,04,18,08,17,11.70
2016,04,18,08,18,11.70
2016,04,18,08,19,11.80
2016,04,18,08,20,11.80
2016,04,18,08,21,11.80
2016,04,18,08,22,11.90
2016,04,18,08,23,11.90
2016,04,18,08,24,11.90
2016,04,18,08,25,12.00
2016,04,18,08,26,12.00
2016,04,18,08,27,12.10
2016,04,18,08,28,12.10
2016,04,18,08,29,12.20
2016,04,18,08,30,12.20
2016,04,18,08,31,12.30
2016,04,18,08,32,12.40
2016,04,18,08,33,12.50
2016,04,18,08,34,12.70
2016,04,18,08,35,12.80
2016,04,18,08,36,12.90
2016,04,18,08,37,13.00
2016,04,18,08,38,13.10
2016,04,18,08,39,13.20
2016,04,18,08,40,13.20
2016,04,18,08,41,13.20
2016,04,18,08,42,13.30
2016,04,18,08,43,13.30
2016,04,18,08,44,13.30
2016,04,18,08,45,13.30
2016,04,18,08,46,13.40
2016,04,18,08,47,13.40
2016,04,18,08,48,13.40
2016,04,18,08,49,13.50
2016,04,18,08,50,13.50
2016,04,18,08,51,13.60
2016,04,18,08,52,13.60
2016,04,18,08,53,13.70
2016,04,18,08,54,13.70
2016,04,18,08,55,13.80
2016,04,18,08,56,13.90
2016,04,18,08,57,14.00
2016,04,18,08,58,14.10
2016,04,18,08,59,14.20
2016,04,18,09,00,14.30
2016,04,18,09,01,14.40
2016,04,18,09,02,14.40
2016,04,18,09,03,14.40
2016,04,18,09,04,14.40
2016,04,18,09,05,14.40
2016,04,18,09,06,14.40
2016,04,18,09,07,14.40
2016,04,18,09,08,14.40
2016,04,18,09,09,14.40
2016,04,18,09,10,14.50
2016,04,18,09,11,14.60
2016,04,18,09,12,14.60
2016,04,18,09,13,14.70
2016,04,18,09,14,14.70
2016,04,18,09,15,14.80
2016,04,18,09,16,14.80
2016,04,18,09,17,14.90
2016,04,18,09,18,14.90
2016,04,18,09,19,14.90
2016,04,18,09,20,15.00
2016,04,18,09,21,15.10
2016,04,18,09,22,15.10
2016,04,18,09,23,15.10
2016,04,18,09,24,15.20
2016,04,18,09,25,15.20
2016,04,18,09,26,15.30
2016,04,18,09,27,15.40
2016,04,18,09,28,15.50
2016,04,18,09,29,15.70
2016,04,18,09,30,15.80
2016,04,18,09,31,15.90
2016,04,18,09,32,16.00
2016,04,18,09,33,16.10
2016,04,18,09,34,16.20
2016,04,18,09,35,16.20
2016,04,18,09,36,16.30
2016,04,18,09,37,16.30
2016,04,18,09,38,16.30
2016,04,18,09,39,16.40
2016,04,18,09,40,16.40
2016,04,18,09,41,16.50
2016,04,18,09,42,16.50
2016,04,18,09,43,16.60
2016,04,18,09,44,16.70
2016,04,18,09,45,16.80
2016,04,18,09,46,16.90
2016,04,18,09,47,16.90
2016,04,18,09,48,16.90
2016,04,18,09,49,16.90
2016,04,18,09,50,16.90
2016,04,18,09,51,16.90
2016,04,18,09,52,17.00
2016,04,18,09,53,17.00
2016,04,18,09,54,17.00
2016,04,18,09,55,17.10
2016,04,18,09,56,17.10
2016,04,18,09,57,17.10
2016,04,18,09,58,17.10
2016,04,18,09,59,17.20
2016,04,18,10,00,17.30
2016,04,18,10,01,17.50
2016,04,18,10,02,17.60
2016,04,18,10,03,17.70
2016,04,18,10,04,17.80
2016,04,18,10,05,18.00
2016,04,18,10,06,18.10
2016,04,18,10,07,18.20
2016,04,18,10,08,18.40
2016,04,18,10,09,18.40
2016,04,18,10,10,18.50
2016,04,18,10,11,18.50
2016,04,18,10,12,18.40
2016,04,18,10,13,18.40
2016,04,18,10,14,18.40
2016,04,18,10,15,18.40
2016,04,18,10,16,18.50
2016,04,18,10,17,18.60
2016,04,18,10,18,18.70
2016,04,18,10,19,18.70
2016,04,18,10,20,18.70
2016,04,18,10,21,18.80
2016,04,18,10,22,18.80
2016,04,18,10,23,18.80
2016,04,18,10,24,18.90
2016,04,18,10,25,19.00
2016,04,18,10,26,19.10
2016,04,18,10,27,19.20
2016,04,18,10,28,19.30
2016,04,18,10,29,19.30
2016,04,18,10,30,19.40
2016,04,18,10,31,19.40
2016,04,18,10,32,19.50
2016,04,18,10,33,19.50
2016,04,18,10,34,19.40
2016,04,18,10,35,19.40
2016,04,18,10,36,19.40
2016,04,18,10,37,19.30
2016,04,18,10,38,19.20
2016,04,18,10,39,19.20
2016,04,18,10,40,19.20
2016,04,18,10,41,19.20
2016,04,18,10,42,19.10
2016,04,18,10,43,19.10
2016,04,18,10,44,19.00
2016,04,18,10,45,18.90
2016,04,18,10,46,18.80
2016,04,18,10,47,18.70
2016,04,18,10,48,18.70
2016,04,18,10,49,18.70
2016,04,18,10,50,18.60
2016,04,18,10,51,18.70
2016,04,18,10,52,18.70
2016,04,18,10,53,18.70
2016,04,18,10,54,18.70
2016,04,18,10,55,18.70
2016,04,18,10,56,18.80
2016,04,18,10,57,18.80
2016,04,18,10,58,18.80
2016,04,18,10,59,18.90
2016,04,18,11,00,19.00
2016,04,18,11,01,19.00
2016,04,18,11,02,19.00
2016,04,18,11,03,19.10
2016,04,18,11,04,19.20
2016,04,18,11,05,19.20
2016,04,18,11,06,19.30
2016,04,18,11,07,19.30
2016,04,18,11,08,19.40
2016,04,18,11,09,19.40
2016,04,18,11,10,19.50
2016,04,18,11,11,19.50
2016,04,18,11,12,19.60
2016,04,18,11,13,19.60
2016,04,18,11,14,19.60
2016,04,18,11,15,19.70
2016,04,18,11,16,19.70
2016,04,18,11,17,19.70
2016,04,18,11,18,19.70
2016,04,18,11,19,19.80
2016,04,18,11,20,19.80
2016,04,18,11,21,19.80
2016,04,18,11,22,19.90
2016,04,18,11,23,19.90
2016,04,18,11,24,19.90
2016,04,18,11,25,19.90
2016,04,18,11,26,19.90
2016,04,18,11,27,19.90
2016,04,18,11,28,19.90
2016,04,18,11,29,19.90
2016,04,18,11,30,20.00
2016,04,18,11,31,20.00
2016,04,18,11,32,20.00
2016,04,18,11,33,20.00
2016,04,18,11,34,20.00
2016,04,18,11,35,20.00
2016,04,18,11,36,20.10
2016,04,18,11,37,20.20
2016,04,18,11,38,20.30
2016,04,18,11,39,20.40
2016,04,18,11,40,20.50
2016,04,18,11,41,20.60
2016,04,18,11,42,20.70
2016,04,18,11,43,20.80
2016,04,18,11,44,20.80
2016,04,18,11,45,20.90
2016,04,18,11,46,21.00
2016,04,18,11,47,21.10
2016,04,18,11,48,21.10
2016,04,18,11,49,21.20
2016,04,18,11,50,21.30
2016,04,18,11,51,21.30
2016,04,18,11,52,21.40
2016,04,18,11,53,21.50
2016,04,18,11,54,21.50
2016,04,18,11,55,21.60
2016,04,18,11,56,21.60
2016,04,18,11,57,21.60
2016,04,18,11,58,21.70
2016,04,18,11,59,21.70
2016,04,18,12,00,21.80
2016,04,18,12,01,21.80
2016,04,18,12,02,21.80
2016,04,18,12,03,21.80
2016,04,18,12,04,21.90
2016,04,18,12,05,21.90
2016,04,18,12,06,21.90
2016,04,18,12,07,22.00
2016,04,18,12,08,22.00
2016,04,18,12,09,22.10
2016,04,18,12,10,22.10
2016,04,18,12,11,22.10
2016,04,18,12,12,22.20
2016,04,18,12,13,22.20
2016,04,18,12,14,22.30
2016,04,18,12,15,22.30
2016,04,18,12,16,22.30
2016,04,18,12,17,22.30
2016,04,18,12,18,22.30
2016,04,18,12,19,22.20
2016,04,18,12,20,22.20
2016,04,18,12,21,22.10
2016,04,18,12,22,22.10
2016,04,18,12,23,22.10
2016,04,18,12,24,22.10
2016,04,18,12,25,22.20
2016,04,18,12,26,22.20
2016,04,18,12,27,22.30
2016,04,18,12,28,22.30
2016,04,18,12,29,22.40
2016,04,18,12,30,22.40
2016,04,18,12,31,22.40
2016,04,18,12,32,22.40
2016,04,18,12,33,22.40
2016,04,18,12,34,22.50
2016,04,18,12,35,22.60
2016,04,18,12,36,22.70
2016,04,18,12,37,22.80
2016,04,18,12,38,22.90
2016,04,18,12,39,23.00
2016,04,18,12,40,23.10
2016,04,18,12,41,23.20
2016,04,18,12,42,23.30
2016,04,18,12,43,23.40
2016,04,18,12,44,23.40
2016,04,18,12,45,23.40
2016,04,18,12,46,23.30
2016,04,18,12,47,23.30
2016,04,18,12,48,23.20
2016,04,18,12,49,23.20
2016,04,18,12,50,23.20
2016,04,18,12,51,23.20
2016,04,18,12,52,23.30
2016,04,18,12,53,23.30
2016,04,18,12,54,23.30
2016,04,18,12,55,23.30
2016,04,18,12,56,23.40
2016,04,18,12,57,23.40
2016,04,18,12,58,23.50
2016,04,18,12,59,23.50
2016,04,18,13,00,23.50
2016,04,18,13,01,23.60
2016,04,18,13,02,23.70
2016,04,18,13,03,23.70
2016,04,18,13,04,23.80
2016,04,18,13,05,23.90
2016,04,18,13,06,24.10
2016,04,18,13,07,24.20
2016,04,18,13,08,24.20
2016,04,18,13,09,24.20
2016,04,18,13,10,24.20
2016,04,18,13,11,24.20
2016,04,18,13,12,24.20
2016,04,18,13,13,24.10
2016,04,18,13,14,24.00
2016,04,18,13,15,23.70
2016,04,18,13,16,23.40
2016,04,18,13,17,23.20
2016,04,18,13,18,23.00
2016,04,18,13,19,22.80
2016,04,18,13,20,22.70
2016,04,18,13,21,22.70
2016,04,18,13,22,22.60
2016,04,18,13,23,22.60
2016,04,18,13,24,22.60
2016,04,18,13,25,22.60
2016,04,18,13,26,22.70
2016,04,18,13,27,22.80
2016,04,18,13,28,23.00
2016,04,18,13,29,23.00
2016,04,18,13,30,23.10
2016,04,18,13,31,23.30
2016,04,18,13,32,23.40
2016,04,18,13,33,23.50
2016,04,18,13,34,23.60
2016,04,18,13,35,23.70
2016,04,18,13,36,23.80
2016,04,18,13,37,23.80
2016,04,18,13,38,23.80
2016,04,18,13,39,23.90
2016,04,18,13,40,23.90
2016,04,18,13,41,23.90
2016,04,18,13,42,23.90
2016,04,18,13,43,23.80
2016,04,18,13,44,23.70
2016,04,18,13,45,23.70
2016,04,18,13,46,23.50
2016,04,18,13,47,23.30
2016,04,18,13,48,23.00
2016,04,18,13,49,22.70
2016,04,18,13,50,22.40
2016,04,18,13,51,22.20
2016,04,18,13,52,22.00
2016,04,18,13,53,21.80
2016,04,18,13,54,21.70
2016,04,18,13,55,21.70
2016,04,18,13,56,21.70
2016,04,18,13,57,21.70
2016,04,18,13,58,21.80
2016,04,18,13,59,21.90
2016,04,18,14,00,22.00
2016,04,18,14,01,22.20
2016,04,18,14,02,22.30
2016,04,18,14,03,22.50
2016,04,18,14,04,22.70
2016,04,18,14,05,22.80
2016,04,18,14,06,23.00
2016,04,18,14,07,23.00
2016,04,18,14,08,23.10
2016,04,18,14,09,23.30
2016,04,18,14,10,23.40
2016,04,18,14,11,23.50
2016,04,18,14,12,23.50
2016,04,18,14,13,23.60
2016,04,18,14,14,23.70
2016,04,18,14,15,23.80
2016,04,18,14,16,23.90
2016,04,18,14,17,23.90
2016,04,18,14,18,23.90
2016,04,18,14,19,23.90
2016,04,18,14,20,23.90
2016,04,18,14,21,23.80
2016,04,18,14,22,23.70
2016,04,18,14,23,23.70
2016,04,18,14,24,23.60
2016,04,18,14,25,23.60
2016,04,18,14,26,23.60
2016,04,18,14,27,23.60
2016,04,18,14,28,23.60
2016,04,18,14,29,23.50
2016,04,18,14,30,23.50
2016,04,18,14,31,23.60
2016,04,18,14,32,23.70
2016,04,18,14,33,23.80
2016,04,18,14,34,24.00
2016,04,18,14,35,24.20
2016,04,18,14,36,24.30
2016,04,18,14,37,24.40
2016,04,18,14,38,24.40
2016,04,18,14,39,24.40
2016,04,18,14,40,24.40
2016,04,18,14,41,24.40
2016,04,18,14,42,24.50
2016,04,18,14,43,24.50
2016,04,18,14,44,24.60
2016,04,18,14,45,24.60
2016,04,18,14,46,24.60
2016,04,18,14,47,24.60
2016,04,18,14,48,24.60
2016,04,18,14,49,24.70
2016,04,18,14,50,24.80
2016,04,18,14,51,24.80
2016,04,18,14,52,24.90
2016,04,18,14,53,25.00
2016,04,18,14,54,25.10
2016,04,18,14,55,25.10
2016,04,18,14,56,25.10
2016,04,18,14,57,25.10
2016,04,18,14,58,25.10
2016,04,18,14,59,25.00
2016,04,18,15,00,24.90
2016,04,18,15,01,24.80
2016,04,18,15,02,24.80
2016,04,18,15,03,24.70
2016,04,18,15,04,24.70
2016,04,18,15,05,24.80
2016,04,18,15,06,24.80
2016,04,18,15,07,24.90
2016,04,18,15,08,24.90
2016,04,18,15,09,24.90
2016,04,18,15,10,24.80
2016,04,18,15,11,24.80
2016,04,18,15,12,24.80
2016,04,18,15,13,24.80
2016,04,18,15,14,24.80
2016,04,18,15,15,24.80
2016,04,18,15,16,24.80
2016,04,18,15,17,24.80
2016,04,18,15,18,24.80
2016,04,18,15,19,24.80
2016,04,18,15,20,24.80
2016,04,18,15,21,24.80
2016,04,18,15,22,24.80
2016,04,18,15,23,24.80
2016,04,18,15,24,24.80
2016,04,18,15,25,24.80
2016,04,18,15,26,24.80
2016,04,18,15,27,24.80
2016,04,18,15,28,24.80
2016,04,18,15,29,24.80
2016,04,18,15,30,24.80
2016,04,18,15,31,24.90
2016,04,18,15,32,24.90
2016,04,18,15,33,24.90
2016,04,18,15,34,24.90
2016,04,18,15,35,24.90
2016,04,18,15,36,24.90
2016,04,18,15,37,24.90
2016,04,18,15,38,24.90
2016,04,18,15,39,25.00
2016,04,18,15,40,25.10
2016,04,18,15,41,25.20
2016,04,18,15,42,25.10
2016,04,18,15,43,25.00
2016,04,18,15,44,24.90
2016,04,18,15,45,24.90
2016,04,18,15,46,24.90
2016,04,18,15,47,24.90
2016,04,18,15,48,24.80
2016,04,18,15,49,24.80
2016,04,18,15,50,24.90
2016,04,18,15,51,24.90
2016,04,18,15,52,25.00
2016,04,18,15,53,25.10
2016,04,18,15,54,25.10
2016,04,18,15,55,25.10
2016,04,18,15,56,25.10
2016,04,18,15,57,25.10
2016,04,18,15,58,25.20
2016,04,18,15,59,25.20
2016,04,18,16,00,25.30
2016,04,18,16,01,25.40
2016,04,18,16,02,25.50
2016,04,18,16,03,25.60
2016,04,18,16,04,25.80
2016,04,18,16,05,25.90
2016,04,18,16,06,25.90
2016,04,18,16,07,25.90
2016,04,18,16,08,25.90
2016,04,18,16,09,25.90
2016,04,18,16,10,25.90
2016,04,18,16,11,25.90
2016,04,18,16,12,25.90
2016,04,18,16,13,25.90
2016,04,18,16,14,25.90
2016,04,18,16,15,25.80
2016,04,18,16,16,25.90
2016,04,18,16,17,25.90
2016,04,18,16,18,25.90
2016,04,18,16,19,25.90
2016,04,18,16,20,25.90
2016,04,18,16,21,25.80
2016,04,18,16,22,25.70
2016,04,18,16,23,25.60
2016,04,18,16,24,25.50
2016,04,18,16,25,25.50
2016,04,18,16,26,25.50
2016,04,18,16,27,25.40
2016,04,18,16,28,25.50
2016,04,18,16,29,25.50
2016,04,18,16,30,25.60
2016,04,18,16,31,25.60
2016,04,18,16,32,25.70
2016,04,18,16,33,25.80
2016,04,18,16,34,25.80
2016,04,18,16,35,25.90
2016,04,18,16,36,25.90
2016,04,18,16,37,26.00
2016,04,18,16,38,26.00
2016,04,18,16,39,26.10
2016,04,18,16,40,26.20
2016,04,18,16,41,26.30
2016,04,18,16,42,26.40
2016,04,18,16,43,26.40
2016,04,18,16,44,26.50
2016,04,18,16,45,26.50
2016,04,18,16,46,26.50
2016,04,18,16,47,26.40
2016,04,18,16,48,26.20
2016,04,18,16,49,26.10
2016,04,18,16,50,25.90
2016,04,18,16,51,25.80
2016,04,18,16,52,25.70
2016,04,18,16,53,25.60
2016,04,18,16,54,25.60
2016,04,18,16,55,25.50
2016,04,18,16,56,25.50
2016,04,18,16,57,25.50
2016,04,18,16,58,25.60
2016,04,18,16,59,25.60
2016,04,18,17,00,25.60
2016,04,18,17,01,25.60
2016,04,18,17,02,25.60
2016,04,18,17,03,25.60
2016,04,18,17,04,25.70
2016,04,18,17,05,25.70
2016,04,18,17,06,25.80
2016,04,18,17,07,25.80
2016,04,18,17,08,25.80
2016,04,18,17,09,25.90
2016,04,18,17,10,25.90
2016,04,18,17,11,25.80
2016,04,18,17,12,25.80
2016,04,18,17,13,25.80
2016,04,18,17,14,25.80
2016,04,18,17,15,25.80
2016,04,18,17,16,25.80
2016,04,18,17,17,25.80
2016,04,18,17,18,25.80
2016,04,18,17,19,25.90
2016,04,18,17,20,25.90
2016,04,18,17,21,26.00
2016,04,18,17,22,26.00
2016,04,18,17,23,26.10
2016,04,18,17,24,26.10
2016,04,18,17,25,26.20
2016,04,18,17,26,26.20
2016,04,18,17,27,26.20
2016,04,18,17,28,26.20
2016,04,18,17,29,26.30
2016,04,18,17,30,26.40
2016,04,18,17,31,26.40
2016,04,18,17,32,26.50
2016,04,18,17,33,26.60
2016,04,18,17,34,26.70
2016,04,18,17,35,26.70
2016,04,18,17,36,26.70
2016,04,18,17,37,26.60
2016,04,18,17,38,26.50
2016,04,18,17,39,26.40
2016,04,18,17,40,26.30
2016,04,18,17,41,26.20
2016,04,18,17,42,26.20
2016,04,18,17,43,26.10
2016,04,18,17,44,26.00
2016,04,18,17,45,25.90
2016,04,18,17,46,25.80
2016,04,18,17,47,25.60
2016,04,18,17,48,25.50
2016,04,18,17,49,25.40
2016,04,18,17,50,25.20
2016,04,18,17,51,25.10
2016,04,18,17,52,25.00
2016,04,18,17,53,24.80
2016,04,18,17,54,24.60
2016,04,18,17,55,24.50
2016,04,18,17,56,24.40
2016,04,18,17,57,24.30
2016,04,18,17,58,24.30
2016,04,18,17,59,24.30
2016,04,18,18,00,24.30
2016,04,18,18,01,24.30
2016,04,18,18,02,24.30
2016,04,18,18,03,24.40
2016,04,18,18,04,24.40
2016,04,18,18,05,24.50
2016,04,18,18,06,24.60
2016,04,18,18,07,24.70
2016,04,18,18,08,24.70
2016,04,18,18,09,24.80
2016,04,18,18,10,24.80
2016,04,18,18,11,24.80
2016,04,18,18,12,24.90
2016,04,18,18,13,24.90
2016,04,18,18,14,25.00
2016,04,18,18,15,25.00
2016,04,18,18,16,24.90
2016,04,18,18,17,24.90
2016,04,18,18,18,24.80
2016,04,18,18,19,24.80
2016,04,18,18,20,24.80
2016,04,18,18,21,24.80
2016,04,18,18,22,24.80
2016,04,18,18,23,24.90
2016,04,18,18,24,24.90
2016,04,18,18,25,25.00
2016,04,18,18,26,25.00
2016,04,18,18,27,25.10
2016,04,18,18,28,25.20
2016,04,18,18,29,25.20
2016,04,18,18,30,25.30
2016,04,18,18,31,25.40
2016,04,18,18,32,25.40
2016,04,18,18,33,25.40
2016,04,18,18,34,25.40
2016,04,18,18,35,25.40
2016,04,18,18,36,25.40
2016,04,18,18,37,25.40
2016,04,18,18,38,25.40
2016,04,18,18,39,25.30
2016,04,18,18,40,25.20
2016,04,18,18,41,25.10
2016,04,18,18,42,25.00
2016,04,18,18,43,24.90
2016,04,18,18,44,24.80
2016,04,18,18,45,24.70
2016,04,18,18,46,24.60
2016,04,18,18,47,24.50
2016,04,18,18,48,24.40
2016,04,18,18,49,24.30
2016,04,18,18,50,24.20
2016,04,18,18,51,24.10
2016,04,18,18,52,24.00
2016,04,18,18,53,24.00
2016,04,18,18,54,23.90
2016,04,18,18,55,23.80
2016,04,18,18,56,23.80
2016,04,18,18,57,23.70
2016,04,18,18,58,23.70
2016,04,18,18,59,23.60
2016,04,18,19,00,23.60
2016,04,18,19,01,23.50
2016,04,18,19,02,23.40
2016,04,18,19,03,23.30
2016,04,18,19,04,23.30
2016,04,18,19,05,23.20
2016,04,18,19,06,23.10
2016,04,18,19,07,23.00
2016,04,18,19,08,22.90
2016,04,18,19,09,22.80
2016,04,18,19,10,22.80
2016,04,18,19,11,22.70
2016,04,18,19,12,22.60
2016,04,18,19,13,22.60
2016,04,18,19,14,22.50
2016,04,18,19,15,22.50
2016,04,18,19,16,22.40
2016,04,18,19,17,22.40
2016,04,18,19,18,22.30
2016,04,18,19,19,22.20
2016,04,18,19,20,22.20
2016,04,18,19,21,22.10
2016,04,18,19,22,22.00
2016,04,18,19,23,22.00
2016,04,18,19,24,21.90
2016,04,18,19,25,21.80
2016,04,18,19,26,21.80
2016,04,18,19,27,21.80
2016,04,18,19,28,21.70
2016,04,18,19,29,21.70
2016,04,18,19,30,21.60
2016,04,18,19,31,21.60
2016,04,18,19,32,21.60
2016,04,18,19,33,21.50
2016,04,18,19,34,21.40
2016,04,18,19,35,21.40
2016,04,18,19,36,21.30
2016,04,18,19,37,21.30
2016,04,18,19,38,21.30
2016,04,18,19,39,21.20
2016,04,18,19,40,21.20
2016,04,18,19,41,21.10
2016,04,18,19,42,21.10
2016,04,18,19,43,21.00
2016,04,18,19,44,20.90
2016,04,18,19,45,20.90
2016,04,18,19,46,20.90
2016,04,18,19,47,20.80
2016,04,18,19,48,20.80
2016,04,18,19,49,20.80
2016,04,18,19,50,20.70
2016,04,18,19,51,20.60
2016,04,18,19,52,20.50
2016,04,18,19,53,20.40
2016,04,18,19,54,20.30
2016,04,18,19,55,20.20
2016,04,18,19,56,20.00
2016,04,18,19,57,19.90
2016,04,18,19,58,19.80
2016,04,18,19,59,19.70
2016,04,18,20,00,19.60
2016,04,18,20,01,19.50
2016,04,18,20,02,19.40
2016,04,18,20,03,19.30
2016,04,18,20,04,19.20
2016,04,18,20,05,19.10
2016,04,18,20,06,19.00
2016,04,18,20,07,19.00
2016,04,18,20,08,18.90
2016,04,18,20,09,18.80
2016,04,18,20,10,18.70
2016,04,18,20,11,18.70
2016,04,18,20,12,18.60
2016,04,18,20,13,18.60
2016,04,18,20,14,18.60
2016,04,18,20,15,18.50
2016,04,18,20,16,18.50
2016,04,18,20,17,18.40
2016,04,18,20,18,18.30
2016,04,18,20,19,18.30
2016,04,18,20,20,18.20
2016,04,18,20,21,18.20
2016,04,18,20,22,18.20
2016,04,18,20,23,18.10
2016,04,18,20,24,18.10
2016,04,18,20,25,18.10
2016,04,18,20,26,18.10
2016,04,18,20,27,18.00
2016,04,18,20,28,18.00
2016,04,18,20,29,18.00
2016,04,18,20,30,18.00
2016,04,18,20,31,18.00
2016,04,18,20,32,17.90
2016,04,18,20,33,17.90
2016,04,18,20,34,17.90
2016,04,18,20,35,17.80
2016,04,18,20,36,17.80
2016,04,18,20,37,17.80
2016,04,18,20,38,17.80
2016,04,18,20,39,17.80
2016,04,18,20,40,17.80
2016,04,18,20,41,17.70
2016,04,18,20,42,17.70
2016,04,18,20,43,17.70
2016,04,18,20,44,17.70
2016,04,18,20,45,17.70
2016,04,18,20,46,17.60
2016,04,18,20,47,17.60
2016,04,18,20,48,17.60
2016,04,18,20,49,17.60
2016,04,18,20,50,17.50
2016,04,18,20,51,17.50
2016,04,18,20,52,17.50
2016,04,18,20,53,17.40
2016,04,18,20,54,17.40
2016,04,18,20,55,17.40
2016,04,18,20,56,17.40
2016,04,18,20,57,17.40
2016,04,18,20,58,17.40
2016,04,18,20,59,17.40
2016,04,18,21,00,17.40
2016,04,18,21,01,17.40
2016,04,18,21,02,17.40
2016,04,18,21,03,17.40
2016,04,18,21,04,17.40
2016,04,18,21,05,17.30
2016,04,18,21,06,17.30
2016,04,18,21,07,17.30
2016,04,18,21,08,17.30
2016,04,18,21,09,17.30
2016,04,18,21,10,17.20
2016,04,18,21,11,17.20
2016,04,18,21,12,17.20
2016,04,18,21,13,17.20
2016,04,18,21,14,17.20
2016,04,18,21,15,17.20
2016,04,18,21,16,17.10
2016,04,18,21,17,17.10
2016,04,18,21,18,17.10
2016,04,18,21,19,17.00
2016,04,18,21,20,17.00
2016,04,18,21,21,16.90
2016,04,18,21,22,16.90
2016,04,18,21,23,16.90
2016,04,18,21,24,16.90
2016,04,18,21,25,16.80
2016,04,18,21,26,16.80
2016,04,18,21,27,16.80
2016,04,18,21,28,16.70
2016,04,18,21,29,16.70
2016,04,18,21,30,16.60
2016,04,18,21,31,16.60
2016,04,18,21,32,16.50
2016,04,18,21,33,16.50
2016,04,18,21,34,16.40
2016,04,18,21,35,16.40
2016,04,18,21,36,16.30
2016,04,18,21,37,16.30
2016,04,18,21,38,16.20
2016,04,18,21,39,16.20
2016,04,18,21,40,16.20
2016,04,18,21,41,16.20
2016,04,18,21,42,16.20
2016,04,18,21,43,16.20
2016,04,18,21,44,16.20
2016,04,18,21,45,16.20
2016,04,18,21,46,16.20
2016,04,18,21,47,16.20
2016,04,18,21,48,16.10
2016,04,18,21,49,16.10
2016,04,18,21,50,16.00
2016,04,18,21,51,16.00
2016,04,18,21,52,16.10
2016,04,18,21,53,16.10
2016,04,18,21,54,16.20
2016,04,18,21,55,16.20
2016,04,18,21,56,16.20
2016,04,18,21,57,16.20
2016,04,18,21,58,16.10
2016,04,18,21,59,16.10
2016,04,18,22,00,16.10
2016,04,18,22,01,16.10
2016,04,18,22,02,16.00
2016,04,18,22,03,16.00
2016,04,18,22,04,16.00
2016,04,18,22,05,16.00
2016,04,18,22,06,16.00
2016,04,18,22,07,15.90
2016,04,18,22,08,15.90
2016,04,18,22,09,15.90
2016,04,18,22,10,15.80
2016,04,18,22,11,15.80
2016,04,18,22,12,15.70
2016,04,18,22,13,15.70
2016,04,18,22,14,15.70
2016,04,18,22,15,15.70
2016,04,18,22,16,15.70
2016,04,18,22,17,15.70
2016,04,18,22,18,15.70
2016,04,18,22,19,15.70
2016,04,18,22,20,15.60
2016,04,18,22,21,15.60
2016,04,18,22,22,15.60
2016,04,18,22,23,15.60
2016,04,18,22,24,15.70
2016,04,18,22,25,15.70
2016,04,18,22,26,15.60
2016,04,18,22,27,15.60
2016,04,18,22,28,15.60
2016,04,18,22,29,15.60
2016,04,18,22,30,15.60
2016,04,18,22,31,15.60
2016,04,18,22,32,15.50
2016,04,18,22,33,15.40
2016,04,18,22,34,15.40
2016,04,18,22,35,15.40
2016,04,18,22,36,15.40
2016,04,18,22,37,15.40
2016,04,18,22,38,15.40
2016,04,18,22,39,15.40
2016,04,18,22,40,15.40
2016,04,18,22,41,15.40
2016,04,18,22,42,15.40
2016,04,18,22,43,15.40
